User: anonymous   Login
Location: Bruch
(44.2051°N, 0.4120°E)
Time: 16:47:38
(UTC+00:00)
Language:

Cosmos 923 Rocket - Orbit

View from above orbital plane
View from above orbital plane
View from above satellite
View from above satellite

Ground track
Ground track

The orbit data is extracted from the following two-line orbital elements,

1 10121U 77059B   21063.02465523  .00000046  00000-0  24761-4 0  9996
2 10121  74.0485 164.7342 0018942 185.6126 174.4817 14.35972135284461
Epoch (UTC): 04 March 2021 00:35:30
Eccentricity: 0.0018942
inclination: 74.0485°
perigee height: 758 km
apogee height: 785 km
right ascension of ascending node: 164.7342°
argument of perigee: 185.6126°
revolutions per day: 14.35972135
mean anomaly at epoch: 174.4817°
orbit number at epoch: 28446

The dashed part of the orbit path shows where the satellite is in the earth's shadow,  

DLR